Hourly Data Report for July 01, 2017

All times are specified in Local Standard Time (LST). Add 1 hour to adjust for Daylight Saving Time where and when it is observed.

LUTSELK'E CS
NORTHWEST TERRITORIES

62°24'56.030" N
110°41'25.070" W
178.90 m
220L002
71529
XLU

Download Data

Hourly Data (July 2017)
Hourly Data Report for July 1, 2017
Temp Definition
°C
Dew Point Temp Definition
°C
Rel Hum Definition
%
Wind Dir Definition
10's deg

Wind Spd Definition
km/h
Visibility Definition
km
Stn Press Definition
kPa
Hmdx Definition


Wind Chill Definition


Weather Definition


TIME
00:00 16.8 5.7 48 LegendMM LegendMM   99.07     LegendNANA
01:00 15.8 5.8 52 LegendMM LegendMM   99.08     LegendNANA
02:00 15.7 5.7 51 LegendMM LegendMM   99.10     LegendNANA
03:00 16.0 5.7 50 LegendMM LegendMM   99.12     LegendNANA
04:00 16.1 6.0 51 LegendMM LegendMM   99.17     LegendNANA
05:00 16.1 6.1 51 LegendMM LegendMM   99.22     LegendNANA
06:00 15.6 7.7 59 LegendMM LegendMM   99.24     LegendNANA
07:00 16.4 7.4 55 LegendMM LegendMM   99.24     LegendNANA
08:00 17.6 6.2 47 LegendMM LegendMM   99.24     LegendNANA
09:00 20.4 5.2 37 LegendMM LegendMM   99.22     LegendNANA
10:00 20.6 4.8 35 LegendMM LegendMM   99.20     LegendNANA
11:00 21.9 4.0 31 LegendMM LegendMM   99.16     LegendNANA
12:00 21.7 3.2 30 LegendMM LegendMM   99.13     LegendNANA
13:00 22.5 3.8 29 LegendMM LegendMM   99.12     LegendNANA
14:00 21.8 3.8 31 LegendMM LegendMM   99.09     LegendNANA
15:00 21.7 4.5 32 LegendMM LegendMM   99.09     LegendNANA
16:00 21.6 4.5 33 LegendMM LegendMM   99.07     LegendNANA
17:00 21.5 4.6 33 LegendMM LegendMM   99.03     LegendNANA
18:00 21.3 4.6 33 LegendMM LegendMM   99.01     LegendNANA
19:00 20.9 5.8 37 LegendMM LegendMM   99.00     LegendNANA
20:00 19.6 6.7 43 LegendMM LegendMM   99.00     LegendNANA
21:00 18.1 8.4 53 LegendMM LegendMM   98.99     LegendNANA
22:00 18.5 8.1 51 LegendMM LegendMM   98.97     LegendNANA
23:00 17.9 8.5 54 LegendMM LegendMM   98.95     LegendNANA

Notes on Data Quality.

Legend

  • E = Estimated
  • M = Missing
  • NA = Not Available
  • ‡ = Partner data that is not subject to review by the National Climate Archives
Date modified: